Location: Olda
(45.8833°N, 9.5500°E)
Time: 20:26:28
(UTC+00:00)

Gbstr 26 Del rocket - Pass Details

Date: 03 March 2021
Orbit: 492 x 1264 km, 51.8° (Epoch: 13 April)

Event Time Altitude Azimuth Distance (km) Brightness Sun altitude
Rises 18:07:43 0° 272° (W) 2,753 8.7 -10.6°
Reaches altitude 10° 18:09:52 10° 279° (W) 1,936 7.2 -11.0°
Maximum altitude 18:14:06 45° 353° (N) 928 4.0 -11.7°
Enters shadow 18:18:38 13° 63° (ENE) 2,129 5.3 -12.5°
